When you browse on this site, cookies collect data to enhance your experience and personalize the content and advertising you see.
Visit our Privacy Policy to learn more. By continuing to use the site, you agree to this use of cookies and data.
  • In Lithuania
  • List of Countries
  • For 7 days
  • Water Temperature
  • Satellite Maps
  • Weather Map
  • Weather Widgets
  • user-avatar
    Login

    Hourly Weather Usman

    Today, 19 March, Tuesday

    Time Temperature Precipitation Wind Pressure Humidity
    00:00 +6°C° 0 mm 2 mps 768 mmHg 80%
    01:00 +5°C° 0 mm 2 mps 768 mmHg 81%
    02:00 +5°C° 0 mm 2 mps 768 mmHg 82%
    03:00 +4°C° 0 mm 2 mps 768 mmHg 84%
    04:00 +4°C° 0 mm 2 mps 768 mmHg 85%
    05:00 +4°C° 0 mm 2 mps 768 mmHg 87%
    06:00 +3°C° 0 mm 2 mps 768 mmHg 88%
    07:00 +4°C° 0 mm 3 mps 769 mmHg 84%
    08:00 +5°C° 0 mm 3 mps 769 mmHg 80%
    09:00 +7°C° 0 mm 3 mps 769 mmHg 77%
    10:00 +7°C° 0 mm 4 mps 769 mmHg 70%
    11:00 +8°C° 0 mm 4 mps 769 mmHg 64%
    12:00 +11°C° 0 mm 4 mps 769 mmHg 57%
    13:00 +11°C° 0 mm 4 mps 769 mmHg 55%
    14:00 +12°C° 0 mm 4 mps 768 mmHg 52%
    15:00 +13°C° 0 mm 3 mps 768 mmHg 49%
    16:00 +12°C° 0 mm 3 mps 768 mmHg 53%
    17:00 +12°C° 0 mm 3 mps 768 mmHg 56%
    18:00 +11°C° 0 mm 3 mps 767 mmHg 59%
    19:00 +10°C° 0 mm 3 mps 768 mmHg 63%
    20:00 +9°C° 0 mm 3 mps 768 mmHg 67%
    21:00 +8°C° 0 mm 3 mps 768 mmHg 71%
    22:00 +7°C° 0 mm 3 mps 768 mmHg 73%
    23:00 +7°C° 0 mm 3 mps 768 mmHg 75%

    Tomorrow, 20 March, Wednesday

    Time Temperature Precipitation Wind Pressure Humidity
    00:00 +5°C° 0 mm 3 mps 768 mmHg 76%
    01:00 +5°C° 0 mm 3 mps 768 mmHg 77%
    02:00 +4°C° 0 mm 3 mps 768 mmHg 78%
    03:00 +4°C° 0 mm 3 mps 768 mmHg 79%
    04:00 +3°C° 0 mm 3 mps 768 mmHg 79%
    05:00 +3°C° 0 mm 3 mps 768 mmHg 80%
    06:00 +3°C° 0 mm 3 mps 768 mmHg 81%
    07:00 +4°C° 0 mm 3 mps 768 mmHg 76%
    08:00 +5°C° 0 mm 3 mps 768 mmHg 72%
    09:00 +7°C° 0 mm 3 mps 768 mmHg 68%
    10:00 +7°C° 0 mm 4 mps 768 mmHg 62%
    11:00 +10°C° 0 mm 4 mps 768 mmHg 56%
    12:00 +11°C° 0 mm 4 mps 768 mmHg 50%
    13:00 +12°C° 0 mm 4 mps 767 mmHg 48%
    14:00 +13°C° 0 mm 4 mps 767 mmHg 46%
    15:00 +13°C° 0 mm 4 mps 767 mmHg 44%
    16:00 +13°C° 0 mm 3 mps 767 mmHg 47%
    17:00 +12°C° 0 mm 3 mps 766 mmHg 50%
    18:00 +11°C° 0 mm 3 mps 766 mmHg 53%
    19:00 +10°C° 0 mm 3 mps 766 mmHg 57%
    20:00 +9°C° 0 mm 3 mps 767 mmHg 61%
    21:00 +8°C° 0 mm 2 mps 767 mmHg 64%
    22:00 +8°C° 0 mm 2 mps 767 mmHg 66%
    23:00 +7°C° 0 mm 2 mps 767 mmHg 67%

    Day after tomorrow, 21 March, Thursday

    Time Temperature Precipitation Wind Pressure Humidity
    00:00 +7°C° 0 mm 2 mps 766 mmHg 68%
    01:00 +7°C° 0 mm 1 mps 766 mmHg 70%
    02:00 +7°C° 0 mm 1 mps 766 mmHg 71%
    03:00 +7°C° 0 mm 1 mps 766 mmHg 72%
    04:00 +6°C° 0 mm 1 mps 766 mmHg 73%
    05:00 +5°C° 0 mm 0 mps 766 mmHg 74%
    06:00 +5°C° 0 mm 0 mps 766 mmHg 75%
    07:00 +6°C° 0 mm 0 mps 766 mmHg 71%
    08:00 +7°C° 0 mm 0 mps 766 mmHg 66%
    09:00 +10°C° 0 mm 1 mps 766 mmHg 62%
    10:00 +11°C° 0 mm 1 mps 766 mmHg 58%
    11:00 +12°C° 0 mm 2 mps 766 mmHg 53%
    12:00 +13°C° 0 mm 2 mps 766 mmHg 49%
    13:00 +12°C° 0 mm 3 mps 765 mmHg 51%
    14:00 +13°C° 0 mm 3 mps 765 mmHg 52%
    15:00 +13°C° 0 mm 4 mps 764 mmHg 53%
    16:00 +12°C° 0.1 mm 4 mps 764 mmHg 58%
    17:00 +11°C° 0.1 mm 4 mps 764 mmHg 63%
    18:00 +10°C° 0.1 mm 3 mps 764 mmHg 67%
    19:00 +9°C° 0 mm 3 mps 764 mmHg 66%
    20:00 +8°C° 0 mm 3 mps 764 mmHg 65%
    21:00 +8°C° 0 mm 2 mps 765 mmHg 63%
    22:00 +7°C° 0 mm 3 mps 765 mmHg 62%
    23:00 +7°C° 0 mm 3 mps 765 mmHg 61%

    22 March, Friday

    Time Temperature Precipitation Wind Pressure Humidity
    00:00 +7°C° 0 mm 3 mps 764 mmHg 60%
    01:00 +7°C° 0.1 mm 3 mps 764 mmHg 63%
    02:00 +5°C° 0.1 mm 3 mps 765 mmHg 66%
    03:00 +5°C° 0.1 mm 3 mps 765 mmHg 69%
    04:00 +4°C° 0.1 mm 3 mps 765 mmHg 73%
    05:00 +3°C° 0.1 mm 4 mps 765 mmHg 76%
    06:00 +3°C° 0.1 mm 4 mps 765 mmHg 80%
    07:00 +3°C° 0 mm 4 mps 765 mmHg 77%
    08:00 +4°C° 0 mm 4 mps 766 mmHg 74%
    09:00 +5°C° 0 mm 5 mps 766 mmHg 71%
    10:00 +5°C° 0.2 mm 5 mps 766 mmHg 67%
    11:00 +6°C° 0.2 mm 5 mps 766 mmHg 64%
    12:00 +5°C° 0.2 mm 6 mps 766 mmHg 60%
    13:00 +7°C° 0 mm 5 mps 766 mmHg 58%
    14:00 +7°C° 0 mm 5 mps 766 mmHg 55%
    15:00 +7°C° 0 mm 5 mps 765 mmHg 53%
    16:00 +7°C° 0 mm 4 mps 766 mmHg 53%
    17:00 +7°C° 0 mm 4 mps 766 mmHg 53%
    18:00 +8°C° 0 mm 3 mps 766 mmHg 53%
    19:00 +8°C° 0 mm 2 mps 766 mmHg 54%
    20:00 +7°C° 0 mm 2 mps 766 mmHg 56%
    21:00 +8°C° 0 mm 1 mps 766 mmHg 58%
    22:00 +7°C° 0 mm 2 mps 766 mmHg 61%
    23:00 +5°C° 0 mm 3 mps 766 mmHg 63%

    23 March, Saturday

    Time Temperature Precipitation Wind Pressure Humidity
    00:00 +5°C° 0 mm 3 mps 766 mmHg 66%
    01:00 +5°C° 0.1 mm 4 mps 765 mmHg 69%
    02:00 +5°C° 0.1 mm 4 mps 765 mmHg 72%
    03:00 +5°C° 0.1 mm 5 mps 764 mmHg 75%
    04:00 +5°C° 0 mm 5 mps 764 mmHg 78%
    05:00 +5°C° 0 mm 5 mps 764 mmHg 82%
    06:00 +3°C° 0 mm 5 mps 764 mmHg 85%
    07:00 +5°C° 0.1 mm 5 mps 764 mmHg 84%
    08:00 +6°C° 0.1 mm 5 mps 764 mmHg 84%
    09:00 +6°C° 0.1 mm 5 mps 764 mmHg 83%
    10:00 +7°C° 0.1 mm 5 mps 764 mmHg 79%
    11:00 +8°C° 0.1 mm 5 mps 764 mmHg 74%
    12:00 +9°C° 0.1 mm 5 mps 763 mmHg 69%
    13:00 +10°C° 0 mm 5 mps 763 mmHg 62%
    14:00 +11°C° 0 mm 6 mps 763 mmHg 56%
    15:00 +13°C° 0 mm 6 mps 763 mmHg 49%
    16:00 +13°C° 0 mm 5 mps 763 mmHg 52%
    17:00 +12°C° 0 mm 4 mps 763 mmHg 55%
    18:00 +11°C° 0 mm 4 mps 763 mmHg 58%
    19:00 +11°C° 0 mm 3 mps 763 mmHg 63%
    20:00 +10°C° 0 mm 3 mps 764 mmHg 68%
    21:00 +9°C° 0 mm 3 mps 764 mmHg 73%
    22:00 +9°C° 0 mm 3 mps 764 mmHg 74%
    23:00 +8°C° 0 mm 4 mps 764 mmHg 74%

    24 March, Sunday

    Time Temperature Precipitation Wind Pressure Humidity
    00:00 +8°C° 0 mm 4 mps 764 mmHg 75%
    01:00 +8°C° 0 mm 4 mps 763 mmHg 76%
    02:00 +8°C° 0 mm 5 mps 763 mmHg 77%
    03:00 +8°C° 0 mm 5 mps 763 mmHg 77%
    04:00 +7°C° 0 mm 6 mps 763 mmHg 80%
    05:00 +7°C° 0 mm 6 mps 762 mmHg 82%
    06:00 +7°C° 0 mm 6 mps 762 mmHg 85%
    07:00 +8°C° 0 mm 6 mps 762 mmHg 81%
    08:00 +8°C° 0 mm 7 mps 762 mmHg 78%
    09:00 +9°C° 0 mm 7 mps 763 mmHg 75%
    10:00 +9°C° 0 mm 7 mps 762 mmHg 74%
    11:00 +10°C° 0 mm 7 mps 762 mmHg 73%
    12:00 +10°C° 0 mm 8 mps 762 mmHg 72%
    13:00 +11°C° 0.1 mm 7 mps 762 mmHg 70%
    14:00 +11°C° 0.1 mm 7 mps 762 mmHg 68%
    15:00 +12°C° 0.1 mm 7 mps 762 mmHg 67%
    16:00 +13°C° 0.1 mm 6 mps 762 mmHg 69%
    17:00 +12°C° 0.1 mm 5 mps 762 mmHg 71%
    18:00 +12°C° 0.1 mm 4 mps 762 mmHg 72%
    19:00 +11°C° 0.1 mm 4 mps 762 mmHg 76%
    20:00 +10°C° 0.1 mm 4 mps 762 mmHg 80%
    21:00 +10°C° 0.1 mm 4 mps 763 mmHg 84%
    22:00 +9°C° 0.1 mm 3 mps 762 mmHg 85%
    23:00 +9°C° 0.1 mm 3 mps 762 mmHg 86%
    Show more